Lakeville, MN

12:20 PM CDT on June 28, 2017 (GMT -0500)
Airlake

Weather History for KLVN - December, 2011

Change the Weather History Date:

Wednesday, December 21, 2011

  Actual Average Record
Temperature  
Mean Temperature 24 °F -  
Max Temperature 30 °F 23 °F 51 °F (1967)
Min Temperature 17 °F 6 °F -23 °F (1989)
Degree Days  
Heating Degree Days 42    
Moisture  
Dew Point 20 °F    
Average Humidity 89    
Maximum Humidity 100    
Minimum Humidity 69    
Precipitation  
Precipitation 0.00 in - - ()
Sea Level Pressure  
Sea Level Pressure 29.72 in    
Wind  
Wind Speed 3 mph (WNW)    
Max Wind Speed 9 mph    
Max Gust Speed -    
Visibility 9 miles    
Events Snow    
Averages and records for this station are not official NWS values.
T = Trace of Precipitation, MM = Missing Value Source: NWS Daily Summary

Daily Weather History Graph

Daily Weather History Graph

Search for Another Location

Airport or City:

Trip Planner

Search our weather history database for the weather conditions in past years. The results will help you decide how hot, cold, wet, or windy it might be!

Date:

Astronomy

Dec. 21, 2011 Rise Set
Actual Time 7:46 AM CST 4:35 PM CST
Civil Twilight 7:13 AM CST 5:08 PM CST
Nautical Twilight 6:36 AM CST 5:45 PM CST
Astronomical Twilight 6:00 AM CST 6:21 PM CST
Moon 4:17 AM CST (12/21) 1:57 PM CST (12/21)
Length of Visible Light 9h 55m
Length of Day
8h 48m
Waning Crescent, 12% of the Moon is Illuminated
Dec 21
Waning Crescent
Dec 24
New
Jan 1
First Quarter
Jan 9
Full
Jan 16
Last Quarter

Hourly Weather History & Observations

Time (CST) Temp. Windchill Dew Point Humidity Pressure Visibility Wind Dir Wind Speed Gust Speed Precip Events Conditions
12:09 AM 17.6 °F - 17.6 °F 100% 29.71 in 10.0 mi Calm Calm - N/A   Clear
12:29 AM 17.6 °F - 17.6 °F 100% 29.70 in 10.0 mi Calm Calm - N/A   Clear
12:48 AM 19.4 °F - 17.6 °F 93% 29.69 in 10.0 mi Calm Calm - N/A   Clear
1:09 AM 17.6 °F 12.3 °F 15.8 °F 93% 29.68 in 10.0 mi South 3.5 mph - N/A   Clear
1:29 AM 17.6 °F 12.3 °F 15.8 °F 93% 29.68 in 10.0 mi South 3.5 mph - N/A   Clear
1:48 AM 17.6 °F 9.3 °F 15.8 °F 93% 29.67 in 10.0 mi SSE 5.8 mph - N/A   Clear
2:09 AM 17.6 °F - 15.8 °F 93% 29.67 in 10.0 mi Calm Calm - N/A   Clear
2:28 AM 17.6 °F 10.7 °F 17.6 °F 100% 29.67 in 10.0 mi SSW 4.6 mph - N/A   Clear
2:48 AM 19.4 °F - 17.6 °F 93% 29.67 in 10.0 mi Calm Calm - N/A   Clear
3:09 AM 17.6 °F 9.3 °F 15.8 °F 93% 29.66 in 10.0 mi South 5.8 mph - N/A   Clear
3:29 AM 17.6 °F 8.2 °F 17.6 °F 100% 29.65 in 10.0 mi South 6.9 mph - N/A   Clear
3:49 AM 17.6 °F 9.3 °F 17.6 °F 100% 29.64 in 10.0 mi South 5.8 mph - N/A   Clear
4:09 AM 19.4 °F 14.3 °F 17.6 °F 93% 29.63 in 10.0 mi SSW 3.5 mph - N/A   Clear
4:28 AM 17.6 °F 8.2 °F 17.6 °F 100% 29.63 in 10.0 mi South 6.9 mph - N/A   Clear
4:49 AM 17.6 °F - 17.6 °F 100% 29.63 in 10.0 mi Calm Calm - N/A   Clear
5:09 AM 17.6 °F 12.3 °F 17.6 °F 100% 29.63 in 10.0 mi South 3.5 mph - N/A   Clear
5:28 AM 17.6 °F 12.3 °F 17.6 °F 100% 29.63 in 10.0 mi South 3.5 mph - N/A   Clear
5:49 AM 17.6 °F - 15.8 °F 93% 29.63 in 10.0 mi Calm Calm - N/A   Clear
6:09 AM 17.6 °F - 15.8 °F 93% 29.63 in 10.0 mi Calm Calm - N/A   Clear
6:28 AM 17.6 °F - 15.8 °F 93% 29.63 in 7.0 mi Calm Calm - N/A   Clear
7:08 AM 17.6 °F - 17.6 °F 100% 29.63 in 10.0 mi Calm Calm - N/A   Clear
7:28 AM 17.6 °F - 17.6 °F 100% 29.63 in 7.0 mi Calm Calm - N/A   Clear
7:49 AM 19.4 °F - 17.6 °F 93% 29.64 in 10.0 mi Calm Calm - N/A   Clear
8:09 AM 19.4 °F - 17.6 °F 93% 29.64 in 10.0 mi Calm Calm - N/A   Clear
8:29 AM 19.4 °F - 17.6 °F 93% 29.65 in 7.0 mi Calm Calm - N/A   Clear
8:48 AM 19.4 °F - 19.4 °F 100% 29.66 in 7.0 mi Calm Calm - N/A   Clear
9:08 AM 21.2 °F - 19.4 °F 93% 29.66 in 10.0 mi Calm Calm - N/A   Clear
9:29 AM 21.2 °F - 21.2 °F 100% 29.67 in 7.0 mi Calm Calm - N/A   Clear
9:49 AM 23.0 °F - 21.2 °F 93% 29.67 in 10.0 mi Calm Calm - N/A   Clear
10:29 AM 24.8 °F - 21.2 °F 86% 29.68 in 10.0 mi Calm Calm - N/A   Unknown
10:48 AM 26.6 °F - 23.0 °F 86% 29.68 in 10.0 mi Calm Calm - N/A   Unknown
11:29 AM 26.6 °F - 21.2 °F 80% 29.68 in 10.0 mi Calm Calm - N/A   Scattered Clouds
12:09 PM 28.4 °F - 21.2 °F 74% 29.67 in 10.0 mi Calm Calm - N/A   Unknown
12:29 PM 28.4 °F 24.6 °F 21.2 °F 74% 29.68 in 10.0 mi NW 3.5 mph - N/A   Overcast
12:48 PM 28.4 °F - 21.2 °F 74% 29.68 in 10.0 mi Calm Calm - N/A   Overcast
1:09 PM 30.2 °F 26.7 °F 21.2 °F 69% 29.69 in 10.0 mi WNW 3.5 mph - N/A   Overcast
1:29 PM 30.2 °F 24.3 °F 21.2 °F 69% 29.70 in 10.0 mi NW 5.8 mph - N/A   Mostly Cloudy
1:48 PM 28.4 °F 21.2 °F 21.2 °F 74% 29.70 in 10.0 mi NW 6.9 mph - N/A   Mostly Cloudy
2:09 PM 28.4 °F 19.7 °F 21.2 °F 74% 29.71 in 10.0 mi NNW 9.2 mph - N/A   Mostly Cloudy
2:29 PM 28.4 °F 22.2 °F 21.2 °F 74% 29.73 in 10.0 mi NW 5.8 mph - N/A   Overcast
2:48 PM 28.4 °F 22.2 °F 19.4 °F 69% 29.74 in 10.0 mi NNW 5.8 mph - N/A   Overcast
3:09 PM 28.4 °F 22.2 °F 21.2 °F 74% 29.74 in 10.0 mi North 5.8 mph - N/A   Overcast
3:28 PM 28.4 °F 23.3 °F 21.2 °F 74% 29.75 in 10.0 mi North 4.6 mph - N/A   Scattered Clouds
3:49 PM 28.4 °F 20.4 °F 21.2 °F 74% 29.76 in 10.0 mi NNW 8.1 mph - N/A   Scattered Clouds
4:08 PM 28.4 °F 21.2 °F 21.2 °F 74% 29.78 in 10.0 mi NNW 6.9 mph - N/A   Clear
4:29 PM 28.4 °F 21.2 °F 23.0 °F 80% 29.78 in 4.0 mi NNW 6.9 mph - N/A Snow Light Snow
4:48 PM 26.6 °F 20.0 °F 24.8 °F 93% 29.79 in 2.5 mi NNW 5.8 mph - N/A Snow Light Snow
5:08 PM 26.6 °F 21.2 °F 24.8 °F 93% 29.80 in 5.0 mi North 4.6 mph - N/A Snow Light Snow
5:48 PM 26.6 °F 20.0 °F 24.8 °F 93% 29.83 in 10.0 mi NNW 5.8 mph - N/A   Overcast
6:29 PM 26.6 °F 21.2 °F 24.8 °F 93% 29.85 in 10.0 mi NNW 4.6 mph - N/A   Overcast
6:48 PM 26.6 °F 21.2 °F 24.8 °F 93% 29.86 in 10.0 mi NW 4.6 mph - N/A   Overcast
7:08 PM 26.6 °F 21.2 °F 24.8 °F 93% 29.88 in 10.0 mi NW 4.6 mph - N/A   Overcast
7:29 PM 26.6 °F 21.2 °F 24.8 °F 93% 29.88 in 10.0 mi NW 4.6 mph - N/A   Mostly Cloudy
7:48 PM 26.6 °F 22.6 °F 24.8 °F 93% 29.89 in 10.0 mi WNW 3.5 mph - N/A   Scattered Clouds
8:08 PM 26.6 °F 20.0 °F 24.8 °F 93% 29.90 in 10.0 mi WNW 5.8 mph - N/A   Clear
8:29 PM 26.6 °F 21.2 °F 24.8 °F 93% 29.92 in 10.0 mi West 4.6 mph - N/A   Scattered Clouds
8:48 PM 26.6 °F 21.2 °F 26.6 °F 100% 29.93 in 10.0 mi West 4.6 mph - N/A   Overcast
9:09 PM 26.6 °F 20.0 °F 24.8 °F 93% 29.94 in 10.0 mi WNW 5.8 mph - N/A   Overcast
9:29 PM 26.6 °F 20.0 °F 24.8 °F 93% 29.95 in 10.0 mi WNW 5.8 mph - N/A   Mostly Cloudy
9:48 PM 26.6 °F 19.1 °F 24.8 °F 93% 29.95 in 10.0 mi NW 6.9 mph - N/A   Clear
10:09 PM 26.6 °F 17.5 °F 24.8 °F 93% 29.96 in 10.0 mi NNW 9.2 mph - N/A   Clear
10:28 PM 28.4 °F 18.5 °F 23.0 °F 80% 29.98 in 10.0 mi NNW 11.5 mph - N/A   Clear
11:08 PM 26.6 °F 17.5 °F 21.2 °F 80% 30.01 in 10.0 mi North 9.2 mph - N/A   Clear
11:28 PM 26.6 °F 17.5 °F 21.2 °F 80% 30.02 in 10.0 mi North 9.2 mph - N/A   Clear
11:49 PM 26.6 °F 17.5 °F 19.4 °F 74% 30.04 in 10.0 mi NNW 9.2 mph - N/A   Clear